[[{"header":{"parameterUnit":"m.s-1","parameterCategory":1,"la1":30.2991,"la2":30.254,"lo1":-89.0895,"lo2":-89.0444,"dy":0.0017,"dx":0.0017,"nx":28,"ny":28,"refTime":"2025-03-23T03:00:00:Z","depth":0,"parameterNumber":2,"parameterNumberName":"U-component_of_WINDS"},"data":[0,0,0,0,0,0,0,0,0,0,0,0,0,0,0,0,0,0,0,0,0,0,0,0,0,0,0,0,0,0,0,0,0,0,0,0,0,0,0,0,0,0,0,0,0,0,0,0,0,0,0,0,0,0,0,0,0,0,-1.9257,-1.9258,0,-1.9329,-1.933,-1.9331,-1.9337,-1.9336,-1.9335,-1.9335,-1.941,-1.9412,-1.9415,0,0,0,0,0,0,0,0,0,0,0,0,0,-1.9126,-1.9128,-1.9257,-1.9258,-1.9259,-1.9329,-1.933,-1.9331,-1.9337,-1.9336,-1.9335,-1.9334,-1.9409,-1.9412,-1.9415,0,0,0,0,0,0,0,0,0,0,0,0,0,-1.9189,-1.9129,-1.9257,-1.927,-1.9272,-1.9329,-1.933,-1.9331,-1.9337,-1.9336,-1.9335,-1.9334,-1.9408,-1.9412,-1.9416,-1.9464,0,0,-1.9428,-1.943,0,0,0,0,0,0,0,0,-1.9186,-1.9194,-1.9267,-1.9269,-1.9272,-1.9323,-1.9311,-1.9376,-1.9338,-1.9313,-1.9335,-1.9333,-1.9382,-1.9388,-1.9404,-1.9468,-1.9471,-1.9428,-1.9431,-1.9433,-1.9434,0,0,0,0,0,0,0,-1.9181,-1.9191,-1.9286,-1.9268,-1.9271,-1.9273,-1.9281,-1.9324,-1.9353,-1.9315,-1.9315,-1.9324,-1.9383,-1.94,-1.9406,-1.9472,-1.9428,-1.9432,-1.9434,-1.9436,-1.9581,-1.9582,0,0,0,0,0,0,-1.9174,-1.9187,-1.9283,-1.9288,-1.9225,-1.9277,-1.9285,-1.9308,-1.9352,-1.9358,-1.9325,-1.9324,-1.9394,-1.9401,-1.9408,-1.9469,-1.9433,-1.9436,-1.9439,-1.9579,-1.9581,-1.9583,0,0,0,0,0,0,-1.9171,-1.9183,-1.928,-1.9238,-1.925,-1.928,-1.9305,-1.931,-1.9327,-1.936,-1.9365,-1.9337,-1.9393,-1.9403,-1.9451,-1.9472,-1.9438,-1.9442,-1.9578,-1.958,-1.9582,-1.959,0,0,0,0,0,0,-1.9167,-1.9181,-1.92,-1.9238,-1.9253,-1.9321,-1.9307,-1.9312,-1.9334,-1.9333,-1.9373,-1.9378,-1.9393,-1.9444,-1.9455,-1.9477,-1.9445,-1.9576,-1.9579,-1.9581,-1.9588,-1.9592,-1.9596,0,0,0,0,0,-1.9163,-1.9199,-1.9201,-1.9212,-1.9276,-1.9322,-1.933,-1.9346,-1.9336,-1.9355,-1.9376,-1.9377,-1.9468,-1.9449,-1.9461,-1.9484,-1.9575,-1.9578,-1.9581,-1.9586,-1.9591,-1.9596,0,0,0,0,0,0,-1.9163,-1.9204,-1.9206,-1.9256,-1.9285,-1.9323,-1.9347,-1.9351,-1.9384,-1.9382,-1.94,-1.9409,-1.9457,-1.9475,-1.9454,-1.9535,-1.952,-1.9526,-1.952,-1.9526,-1.9529,-1.9524,-1.9449,0,0,0,0,0,-1.9168,-1.9202,-1.9237,-1.9277,-1.9292,-1.9317,-1.9338,-1.9347,-1.9378,-1.9391,-1.9416,-1.9446,-1.9482,-1.9505,-1.9539,-1.9591,-1.96,-1.9613,-1.9617,-1.962,-1.9625,-1.9655,-1.9661,-1.9593,-1.9593,-1.9593,0,0,-1.918,-1.9207,-1.9227,-1.9278,-1.9302,-1.9336,-1.9327,-1.9364,-1.939,-1.9397,-1.9443,-1.9463,-1.9498,-1.9549,-1.9572,-1.9566,-1.9646,-1.9624,-1.9626,-1.9629,-1.9658,-1.9665,-1.9671,-1.9595,-1.9595,-1.9594,0,0,-1.922,-1.9244,-1.9281,-1.9305,-1.9341,-1.9358,-1.9367,-1.9404,-1.9417,-1.9464,-1.947,-1.9502,-1.9563,-1.9588,-1.9609,-1.966,-1.9662,-1.9671,-1.9691,-1.972,-1.9725,-1.973,-1.9749,-1.9755,-1.9675,-1.9675,-1.9675,0,-1.9231,-1.9283,-1.9299,-1.9336,-1.9359,-1.9366,-1.9404,-1.9427,-1.9473,-1.9489,-1.9481,-1.9558,-1.9582,-1.9639,-1.9652,-1.9668,-1.968,-1.9666,-1.9723,-1.9728,-1.9733,-1.9751,-1.9758,-1.9676,-1.9676,-1.9676,-1.9676,0,-1.9295,-1.9331,-1.9357,-1.9401,-1.9426,-1.9463,-1.9486,-1.951,-1.9518,-1.9536,-1.9584,-1.9614,-1.9655,-1.9669,-1.9677,-1.9728,-1.9723,-1.9719,-1.9705,-1.974,-1.9757,-1.9764,-1.9677,-1.9677,-1.9677,-1.9676,0,0,-1.9336,-1.9389,-1.9398,-1.9419,-1.946,-1.9489,-1.9527,-1.9567,-1.9588,-1.9619,-1.9652,-1.9704,-1.9701,-1.9725,-1.9736,-1.9761,-1.9801,-1.9754,-1.9755,-1.9762,-1.9859,-1.9862,-1.987,-1.9803,-1.9804,-1.9805,-1.9856,0,-1.9381,-1.9449,-1.9465,-1.9523,-1.9557,-1.9565,-1.9599,-1.9628,-1.9646,-1.9679,-1.9699,-1.9735,-1.9728,-1.9743,-1.9768,-1.979,-1.9821,-1.9787,-1.9834,-1.9836,-1.9825,-1.9879,-1.9882,-1.9928,-1.9863,-1.9864,-1.9865,0,-1.9442,-1.9475,-1.9537,-1.9574,-1.9589,-1.9619,-1.9658,-1.9688,-1.9722,-1.9734,-1.9761,-1.977,-1.9811,-1.9795,-1.9852,-1.9829,-1.985,-1.9864,-1.9866,-1.9871,-1.9853,-1.9886,-1.9944,-1.9951,-1.9876,-1.9875,-1.9874,0,-1.9467,-1.9527,-1.9572,-1.9589,-1.9634,-1.9655,-1.9674,-1.9707,-1.973,-1.9765,-1.978,-1.9819,-1.984,-1.987,-1.9889,-1.9876,-1.9945,-1.9931,-1.9957,-1.9956,-1.9971,-1.997,-2.0033,-1.9984,-1.9984,-1.9983,-1.9983,0,-1.9515,-1.9553,-1.9583,-1.9611,-1.9654,-1.9672,-1.9714,-1.9734,-1.9764,-1.9796,-1.9806,-1.9836,-1.986,-1.9893,-1.9909,-1.9955,-1.9964,-1.9975,-1.9979,-1.9974,-1.9973,-1.9988,-1.9985,-1.9985,-1.9985,-1.9985,-1.9984,0,-1.955,-1.9572,-1.9621,-1.966,-1.967,-1.97,-1.9734,-1.9761,-1.978,-1.9821,-1.9831,-1.9861,-1.9901,-1.9924,-1.9974,-1.9985,-2.0036,-2.0038,-2.0025,-2.0026,-2.0051,-2.0048,-2.0126,-2.0138,-2.008,-2.0081,-2.0081,0,-1.9579,-1.9608,-1.965,-1.9672,-1.9692,-1.9728,-1.9752,-1.9772,-1.9797,-1.9838,-1.9861,-1.9902,-1.9936,-2.0,-2.0027,-2.0066,-2.0069,-2.0094,-2.0075,-2.007,-2.007,-2.0068,-2.0072,-2.0097,-2.0098,-2.0098,-2.0098,0,-1.963,-1.9639,-1.9673,-1.9712,-1.974,-1.9771,-1.9802,-1.982,-1.9845,-1.9873,-1.9914,-1.9941,-1.9993,-2.0034,-2.0075,-2.0096,-2.0102,-2.0104,-2.0112,-2.0108,-2.0099,-2.0105,-2.0034,-2.0102,-2.0102,-2.0102,-2.0101,-2.0101,-1.9663,-1.969,-1.9724,-1.9762,-1.9787,-1.9816,-1.9844,-1.9866,-1.9901,-1.9945,-1.9955,-1.9998,-2.0033,-2.0089,-2.0112,-2.0147,-2.0142,-2.0154,-2.0157,-2.016,-2.0161,-2.0094,-2.0154,-2.0154,-2.0154,-2.0154,-2.0154,0,-1.9715,-1.9737,-1.9772,-1.9815,-1.9845,-1.9847,-1.9882,-1.9907,-1.9946,-1.9977,-2.001,-2.0058,-2.0098,-2.0128,-2.0169,-2.0192,-2.0196,-2.0202,-2.0201,-2.0206,-2.0162,-2.0151,-2.0198,-2.0198,-2.0198,-2.0198,-2.0198,-2.0198,-1.9745,-1.979,-1.9804,-1.9863,-1.9885,-1.9928,-1.9947,-1.9975,-2.0,-2.0053,-2.0086,-2.0105,-2.0136,-2.018,-2.0217,-2.0225,-2.024,-2.0246,-2.0254,-2.0213,-2.0209,-2.0204,-2.0194,-2.0249,-2.0249,-2.0295,-2.0296,-2.0296]},{"header":{"parameterUnit":"m.s-1","parameterCategory":1,"la1":30.2991,"la2":30.254,"lo1":-89.0895,"lo2":-89.0444,"dy":0.0017,"dx":0.0017,"nx":28,"ny":28,"refTime":"2025-03-23T03:00:00:Z","depth":0,"parameterNumber":3,"parameterNumberName":"V-component_of_WINDS"},"data":[0,0,0,0,0,0,0,0,0,0,0,0,0,0,0,0,0,0,0,0,0,0,0,0,0,0,0,0,0,0,0,0,0,0,0,0,0,0,0,0,0,0,0,0,0,0,0,0,0,0,0,0,0,0,0,0,0,0,4.429,4.4291,0,4.4413,4.4415,4.4416,4.4447,4.4446,4.4445,4.4445,4.4566,4.457,4.4574,0,0,0,0,0,0,0,0,0,0,0,0,0,4.4077,4.4081,4.429,4.4291,4.4293,4.4413,4.4415,4.4416,4.4447,4.4446,4.4445,4.4444,4.4565,4.4569,4.4574,0,0,0,0,0,0,0,0,0,0,0,0,0,4.4182,4.4082,4.4289,4.4323,4.4327,4.4413,4.4415,4.4417,4.4447,4.4446,4.4445,4.4444,4.4563,4.4569,4.4575,4.4634,0,0,4.4593,4.4595,0,0,0,0,0,0,0,0,4.4176,4.4189,4.4316,4.4321,4.4326,4.4414,4.4384,4.449,4.4448,4.4401,4.4445,4.4443,4.4516,4.4526,4.4551,4.464,4.4645,4.4593,4.4597,4.46,4.4601,0,0,0,0,0,0,0,4.4168,4.4184,4.4338,4.4318,4.4324,4.433,4.4344,4.4404,4.4463,4.4405,4.4408,4.4422,4.4518,4.4545,4.4554,4.4647,4.4593,4.4598,4.4602,4.4604,4.4793,4.4794,0,0,0,0,0,0,4.4156,4.4178,4.4335,4.4342,4.4246,4.4335,4.435,4.4386,4.4463,4.4474,4.4423,4.4423,4.4536,4.4547,4.4559,4.4635,4.4599,4.4605,4.4608,4.4791,4.4793,4.4795,0,0,0,0,0,0,4.4151,4.417,4.433,4.4261,4.4282,4.434,4.438,4.4389,4.4417,4.4477,4.4487,4.4441,4.4535,4.455,4.4616,4.4639,4.4608,4.4613,4.479,4.4792,4.4794,4.4786,0,0,0,0,0,0,4.4145,4.4168,4.4192,4.4261,4.4285,4.4386,4.4382,4.4393,4.4428,4.4429,4.4495,4.4505,4.4536,4.4607,4.4622,4.4647,4.4618,4.4788,4.4791,4.4793,4.4784,4.4787,4.479,0,0,0,0,0,4.4137,4.4183,4.4193,4.4212,4.4317,4.4387,4.4401,4.4436,4.4429,4.4453,4.4492,4.4503,4.4634,4.4614,4.4631,4.4657,4.4786,4.479,4.4793,4.4783,4.4787,4.479,0,0,0,0,0,0,4.4112,4.4193,4.4204,4.4274,4.4324,4.4392,4.4424,4.4439,4.449,4.4489,4.4529,4.4544,4.4607,4.4639,4.4614,4.472,4.471,4.4717,4.4697,4.4701,4.4704,4.4695,4.4623,0,0,0,0,0,4.4115,4.4167,4.4234,4.4289,4.4314,4.4365,4.4396,4.442,4.4472,4.4493,4.4536,4.4585,4.4638,4.4671,4.4723,4.4789,4.4804,4.4816,4.4819,4.4821,4.4826,4.4865,4.4871,4.4805,4.4805,4.4805,0,0,4.4121,4.4172,4.4201,4.4286,4.4327,4.4379,4.4382,4.4436,4.4475,4.45,4.4566,4.46,4.4657,4.4724,4.4755,4.4752,4.4848,4.4826,4.4827,4.4831,4.4869,4.4875,4.4881,4.4808,4.4807,4.4807,0,0,4.4159,4.4202,4.4254,4.4296,4.4359,4.4393,4.4405,4.4472,4.4496,4.4563,4.4584,4.463,4.4719,4.476,4.4792,4.4847,4.4859,4.4863,4.4878,4.4915,4.492,4.4925,4.4945,4.4951,4.4868,4.4868,4.4868,0,4.4157,4.4238,4.4277,4.4332,4.4368,4.4397,4.4449,4.4487,4.4563,4.4587,4.4582,4.4697,4.4737,4.4814,4.4828,4.4853,4.4868,4.4855,4.4916,4.4922,4.4927,4.4946,4.4954,4.4868,4.4868,4.4868,4.4868,0,4.4234,4.4289,4.4323,4.4398,4.4439,4.4491,4.4538,4.4574,4.4594,4.4628,4.4696,4.4746,4.4809,4.4829,4.4848,4.491,4.4906,4.4909,4.4899,4.4932,4.4951,4.4959,4.4868,4.4868,4.4868,4.4868,0,0,4.4257,4.4356,4.4367,4.4402,4.4475,4.4518,4.4572,4.4636,4.4666,4.4718,4.4764,4.484,4.4844,4.4881,4.4905,4.4938,4.4979,4.4937,4.4939,4.4943,4.505,4.5048,4.5056,4.4988,4.499,4.4991,4.5046,0,4.4303,4.4403,4.4441,4.4522,4.4574,4.4602,4.465,4.4699,4.4733,4.4781,4.4817,4.4871,4.4871,4.4894,4.4928,4.4967,4.5001,4.4964,4.5031,4.5033,4.5015,4.5066,4.5063,4.5112,4.5053,4.5055,4.5055,0,4.4371,4.4426,4.4513,4.4581,4.4604,4.4646,4.4708,4.4754,4.4811,4.4833,4.4875,4.4898,4.4955,4.4944,4.5023,4.4997,4.5026,4.505,4.5053,4.506,4.5046,4.5074,4.5128,4.5136,4.5067,4.5067,4.5066,0,4.4379,4.4475,4.454,4.4569,4.465,4.4679,4.4714,4.477,4.4806,4.486,4.4884,4.4943,4.4975,4.502,4.5058,4.5046,4.5134,4.5125,4.5154,4.5153,4.517,4.5169,4.523,4.519,4.519,4.5189,4.5189,0,4.4427,4.4479,4.4546,4.4585,4.4644,4.4687,4.4744,4.4781,4.4831,4.4877,4.4905,4.4948,4.4996,4.5045,4.5075,4.5136,4.515,4.517,4.5177,4.5167,4.5165,4.5187,4.5184,4.5191,4.5191,4.5191,4.519,0,4.4447,4.4493,4.4566,4.4638,4.4657,4.4697,4.4758,4.4798,4.4834,4.4892,4.4909,4.4964,4.5023,4.5067,4.5142,4.5163,4.5229,4.5236,4.521,4.5214,4.524,4.5237,4.5317,4.533,4.5281,4.5281,4.5282,0,4.4474,4.4515,4.4592,4.4627,4.4662,4.4717,4.4755,4.4799,4.4837,4.4906,4.4937,4.4999,4.5051,4.5144,4.519,4.5249,4.5258,4.5282,4.5266,4.5256,4.5258,4.5256,4.526,4.5284,4.5284,4.5284,4.5284,0,4.4518,4.454,4.4594,4.4658,4.4703,4.4754,4.4806,4.4832,4.4885,4.4927,4.4989,4.5029,4.5108,4.5169,4.5233,4.5267,4.5285,4.5289,4.5299,4.5289,4.5273,4.5283,4.5216,4.5287,4.5287,4.5287,4.5286,4.5286,4.4543,4.4581,4.4642,4.4702,4.4747,4.4795,4.4836,4.4878,4.4931,4.5,4.5023,4.5087,4.5144,4.5231,4.5267,4.5317,4.5316,4.533,4.5334,4.5337,4.5336,4.5265,4.5329,4.5329,4.5329,4.5329,4.5329,0,4.4589,4.463,4.4685,4.4758,4.4805,4.482,4.4878,4.4916,4.4973,4.5026,4.5077,4.5149,4.5209,4.5261,4.5323,4.5353,4.5363,4.5368,4.5366,4.5374,4.5333,4.5319,4.5359,4.5359,4.5359,4.5359,4.5359,4.5359,4.4618,4.4684,4.4713,4.4801,4.4842,4.4907,4.4939,4.4984,4.5026,4.5106,4.5156,4.5191,4.5243,4.5309,4.5365,4.5378,4.54,4.5403,4.5419,4.538,4.5376,4.5373,4.536,4.5407,4.5407,4.5455,4.5455,4.5455]}]]